Location: Alafon
(8.4500°N, 4.2333°E)
Time: 15:23:53
(UTC+00:00)

N. Korean satellite - Pass Details

Date: 24 June 2021
Orbit: 451 x 498 km, 97.2° (Epoch: 01 August)

Event Time Altitude Azimuth Distance (km) Brightness Sun altitude
Rises 04:22:41 0° 23° (NNE) 2,568 11.1 -15.2°
Reaches altitude 10° 04:24:51 10° 31° (NNE) 1,690 10.2 -14.8°
Maximum altitude 04:28:16 38° 100° (E) 767 8.0 -14.0°
Drops below altitude 10° 04:31:41 10° 170° (S) 1,695 9.1 -13.2°
Sets 04:33:51 0° 178° (S) 2,576 10.0 -12.8°
